• In Österreich
  • Länderverzeichnis
  • Für 7 Tage
  • Wassertemperatur
  • Satellitenkarten
  • Wetterkarte
  • News
  • Widgets
  • user-avatar
    Anmelden

    Stündliche Wetter Ganja

    Heute, 15 Oktober, Montag

    Zeit Temperatur Niederschläge Wind Luftdruck Luftfeuchtigkeit
    00:00 +15°C° 0 mm 1 m/S 729 mmHg 80%
    01:00 +15°C° 0 mm 1 m/S 729 mmHg 82%
    02:00 +14°C° 0 mm 1 m/S 729 mmHg 83%
    03:00 +14°C° 0 mm 1 m/S 729 mmHg 86%
    04:00 +14°C° 0 mm 1 m/S 729 mmHg 86%
    05:00 +14°C° 0 mm 1 m/S 729 mmHg 87%
    06:00 +14°C° 0 mm 1 m/S 729 mmHg 88%
    07:00 +15°C° 0 mm 1 m/S 729 mmHg 81%
    08:00 +18°C° 0 mm 1 m/S 729 mmHg 74%
    09:00 +19°C° 0 mm 1 m/S 730 mmHg 66%
    10:00 +19°C° 0 mm 2 m/S 730 mmHg 63%
    11:00 +20°C° 0 mm 3 m/S 729 mmHg 59%
    12:00 +21°C° 0 mm 3 m/S 729 mmHg 55%
    13:00 +21°C° 0 mm 3 m/S 729 mmHg 55%
    14:00 +22°C° 0 mm 4 m/S 729 mmHg 55%
    15:00 +22°C° 0 mm 4 m/S 729 mmHg 55%
    16:00 +21°C° 0 mm 4 m/S 729 mmHg 60%
    17:00 +20°C° 0 mm 3 m/S 730 mmHg 65%
    18:00 +19°C° 0 mm 3 m/S 730 mmHg 70%
    19:00 +18°C° 0 mm 3 m/S 730 mmHg 70%
    20:00 +17°C° 0 mm 4 m/S 731 mmHg 71%
    21:00 +17°C° 0 mm 4 m/S 731 mmHg 71%
    22:00 +16°C° 0 mm 3 m/S 731 mmHg 72%
    23:00 +16°C° 0 mm 3 m/S 732 mmHg 73%

    Morgen, 16 Oktober, Dienstag

    Zeit Temperatur Niederschläge Wind Luftdruck Luftfeuchtigkeit
    00:00 +16°C° 0 mm 3 m/S 732 mmHg 74%
    01:00 +14°C° 0 mm 3 m/S 732 mmHg 76%
    02:00 +15°C° 0 mm 2 m/S 732 mmHg 78%
    03:00 +15°C° 0 mm 2 m/S 732 mmHg 79%
    04:00 +14°C° 0 mm 2 m/S 732 mmHg 81%
    05:00 +14°C° 0 mm 2 m/S 732 mmHg 82%
    06:00 +14°C° 0 mm 1 m/S 732 mmHg 84%
    07:00 +15°C° 0 mm 2 m/S 732 mmHg 79%
    08:00 +16°C° 0 mm 2 m/S 732 mmHg 75%
    09:00 +17°C° 0 mm 2 m/S 732 mmHg 70%
    10:00 +18°C° 0 mm 3 m/S 732 mmHg 66%
    11:00 +19°C° 0 mm 3 m/S 732 mmHg 62%
    12:00 +20°C° 0 mm 3 m/S 732 mmHg 58%
    13:00 +20°C° 0 mm 3 m/S 732 mmHg 57%
    14:00 +20°C° 0 mm 3 m/S 731 mmHg 56%
    15:00 +21°C° 0 mm 3 m/S 731 mmHg 55%
    16:00 +20°C° 0 mm 3 m/S 731 mmHg 60%
    17:00 +19°C° 0 mm 3 m/S 731 mmHg 65%
    18:00 +18°C° 0 mm 2 m/S 731 mmHg 70%
    19:00 +17°C° 0 mm 2 m/S 731 mmHg 72%
    20:00 +17°C° 0 mm 2 m/S 732 mmHg 74%
    21:00 +16°C° 0 mm 2 m/S 732 mmHg 76%
    22:00 +16°C° 0 mm 2 m/S 732 mmHg 79%
    23:00 +16°C° 0 mm 2 m/S 732 mmHg 82%

    übermorgen, 17 Oktober, Mittwoch

    Zeit Temperatur Niederschläge Wind Luftdruck Luftfeuchtigkeit
    00:00 +15°C° 0 mm 2 m/S 732 mmHg 84%
    01:00 +15°C° 0 mm 2 m/S 732 mmHg 86%
    02:00 +15°C° 0 mm 1 m/S 732 mmHg 88%
    03:00 +14°C° 0 mm 1 m/S 732 mmHg 89%
    04:00 +14°C° 0 mm 1 m/S 731 mmHg 89%
    05:00 +14°C° 0 mm 1 m/S 731 mmHg 90%
    06:00 +14°C° 0 mm 1 m/S 731 mmHg 90%
    07:00 +15°C° 0 mm 1 m/S 731 mmHg 85%
    08:00 +16°C° 0 mm 1 m/S 731 mmHg 80%
    09:00 +17°C° 0 mm 2 m/S 732 mmHg 76%
    10:00 +18°C° 0 mm 2 m/S 731 mmHg 72%
    11:00 +19°C° 0 mm 2 m/S 731 mmHg 68%
    12:00 +20°C° 0 mm 3 m/S 731 mmHg 64%
    13:00 +20°C° 0 mm 3 m/S 730 mmHg 63%
    14:00 +20°C° 0 mm 3 m/S 730 mmHg 62%
    15:00 +20°C° 0 mm 3 m/S 730 mmHg 61%
    16:00 +19°C° 0 mm 3 m/S 730 mmHg 67%
    17:00 +18°C° 0 mm 2 m/S 730 mmHg 73%
    18:00 +17°C° 0 mm 2 m/S 729 mmHg 78%
    19:00 +17°C° 0 mm 2 m/S 730 mmHg 81%
    20:00 +16°C° 0 mm 2 m/S 730 mmHg 84%
    21:00 +16°C° 0 mm 1 m/S 730 mmHg 86%
    22:00 +15°C° 0 mm 1 m/S 730 mmHg 87%
    23:00 +15°C° 0 mm 1 m/S 730 mmHg 88%

    18 Oktober, Donnerstag

    Zeit Temperatur Niederschläge Wind Luftdruck Luftfeuchtigkeit
    00:00 +15°C° 0 mm 1 m/S 729 mmHg 89%
    01:00 +15°C° 0 mm 1 m/S 729 mmHg 89%
    02:00 +15°C° 0 mm 1 m/S 729 mmHg 88%
    03:00 +15°C° 0 mm 1 m/S 729 mmHg 88%
    04:00 +14°C° 0 mm 1 m/S 729 mmHg 87%
    05:00 +14°C° 0 mm 1 m/S 729 mmHg 86%
    06:00 +14°C° 0 mm 1 m/S 728 mmHg 85%
    07:00 +16°C° 0 mm 1 m/S 729 mmHg 77%
    08:00 +18°C° 0 mm 1 m/S 729 mmHg 70%
    09:00 +20°C° 0 mm 1 m/S 729 mmHg 63%
    10:00 +21°C° 0 mm 1 m/S 728 mmHg 59%
    11:00 +21°C° 0 mm 2 m/S 728 mmHg 55%
    12:00 +23°C° 0 mm 2 m/S 728 mmHg 51%
    13:00 +24°C° 0 mm 2 m/S 727 mmHg 50%
    14:00 +24°C° 0 mm 2 m/S 727 mmHg 49%
    15:00 +24°C° 0 mm 3 m/S 727 mmHg 48%
    16:00 +23°C° 0 mm 2 m/S 727 mmHg 54%
    17:00 +21°C° 0 mm 2 m/S 727 mmHg 60%
    18:00 +19°C° 0 mm 2 m/S 728 mmHg 65%
    19:00 +19°C° 0 mm 2 m/S 728 mmHg 67%
    20:00 +18°C° 0 mm 2 m/S 728 mmHg 69%
    21:00 +18°C° 0 mm 2 m/S 729 mmHg 71%
    22:00 +17°C° 0 mm 2 m/S 729 mmHg 73%
    23:00 +17°C° 0 mm 2 m/S 729 mmHg 75%

    19 Oktober, Freitag

    Zeit Temperatur Niederschläge Wind Luftdruck Luftfeuchtigkeit
    00:00 +17°C° 0 mm 2 m/S 729 mmHg 77%
    01:00 +16°C° 0 mm 1 m/S 729 mmHg 79%
    02:00 +16°C° 0 mm 1 m/S 729 mmHg 82%
    03:00 +15°C° 0 mm 1 m/S 728 mmHg 84%
    04:00 +15°C° 0 mm 1 m/S 728 mmHg 84%
    05:00 +14°C° 0 mm 0 m/S 729 mmHg 84%
    06:00 +14°C° 0 mm 0 m/S 729 mmHg 85%
    07:00 +16°C° 0 mm 1 m/S 729 mmHg 79%
    08:00 +18°C° 0 mm 1 m/S 729 mmHg 74%
    09:00 +20°C° 0 mm 1 m/S 729 mmHg 69%
    10:00 +21°C° 0 mm 1 m/S 729 mmHg 65%
    11:00 +21°C° 0 mm 2 m/S 728 mmHg 62%
    12:00 +23°C° 0 mm 2 m/S 728 mmHg 58%
    13:00 +23°C° 0 mm 2 m/S 728 mmHg 58%
    14:00 +23°C° 0 mm 2 m/S 727 mmHg 57%
    15:00 +24°C° 0 mm 3 m/S 727 mmHg 56%
    16:00 +23°C° 0 mm 2 m/S 727 mmHg 61%
    17:00 +21°C° 0 mm 2 m/S 727 mmHg 66%
    18:00 +19°C° 0 mm 2 m/S 728 mmHg 72%
    19:00 +19°C° 0 mm 2 m/S 728 mmHg 74%
    20:00 +19°C° 0 mm 2 m/S 728 mmHg 76%
    21:00 +18°C° 0 mm 2 m/S 729 mmHg 78%
    22:00 +18°C° 0 mm 2 m/S 728 mmHg 79%
    23:00 +17°C° 0 mm 2 m/S 728 mmHg 81%

    20 Oktober, Samstag

    Zeit Temperatur Niederschläge Wind Luftdruck Luftfeuchtigkeit
    00:00 +17°C° 0 mm 2 m/S 728 mmHg 83%
    01:00 +18°C° 0 mm 1 m/S 728 mmHg 83%
    02:00 +16°C° 0 mm 1 m/S 728 mmHg 84%
    03:00 +16°C° 0 mm 1 m/S 728 mmHg 85%
    04:00 +15°C° 0 mm 0 m/S 728 mmHg 86%
    05:00 +15°C° 0 mm 0 m/S 728 mmHg 86%
    06:00 +15°C° 0 mm 0 m/S 728 mmHg 87%
    07:00 +16°C° 0 mm 0 m/S 728 mmHg 82%
    08:00 +19°C° 0 mm 1 m/S 728 mmHg 77%
    09:00 +20°C° 0 mm 1 m/S 728 mmHg 72%
    10:00 +21°C° 0 mm 1 m/S 727 mmHg 67%
    11:00 +22°C° 0 mm 1 m/S 727 mmHg 63%
    12:00 +23°C° 0 mm 2 m/S 726 mmHg 58%
    13:00 +23°C° 0 mm 2 m/S 726 mmHg 57%
    14:00 +23°C° 0 mm 2 m/S 725 mmHg 56%
    15:00 +23°C° 0 mm 2 m/S 725 mmHg 55%
    16:00 +21°C° 0 mm 2 m/S 725 mmHg 59%
    17:00 +21°C° 0 mm 1 m/S 725 mmHg 63%
    18:00 +20°C° 0 mm 1 m/S 725 mmHg 68%
    19:00 +20°C° 0 mm 1 m/S 725 mmHg 69%
    20:00 +20°C° 0 mm 1 m/S 725 mmHg 70%
    21:00 +19°C° 0 mm 1 m/S 725 mmHg 72%
    22:00 +19°C° 0 mm 1 m/S 725 mmHg 73%
    23:00 +18°C° 0 mm 1 m/S 725 mmHg 74%
    Mehr zeigen